Regional Weather Roundup
Issued by NWS

Home | Current Version | Previous Version | Graphics & Text | Print | Product List | Glossary On
Versions: 1 2 3 4 5 6 7 8 9 10 11 12 13 14 15 16 17 18 19 20 21 22 23 24 25 26 27 28 29 30 31 32 33 34 35 36 37 38 39 40 41 42 43 44 45 46 47 48 49 50
000
ASUS43 KIND 201259
RWRIN

WEATHER ROUNDUP FOR INDIANA
NATIONAL WEATHER SERVICE INDIANAPOLIS IN
800 AM EST SAT JAN 20 2018

NOTE: "FAIR" INDICATES FEW OR NO CLOUDS BELOW 12,000 FEET WITH NO
SIGNIFICANT WEATHER AND/OR OBSTRUCTIONS TO VISIBILITY.

* - STATION DOES NOT REPORT WEATHER SUCH AS PRECIPITATION OR FOG.

+ - STATION NOT QUALITY CONTROLLED BY THE NATIONAL WEATHER SERVICE.
    USE DATA WITH CAUTION...ESPECIALLY DEWPOINT AND RELATIVE
    HUMIDITY OBSERVATIONS.

INZ001>003-010>013-019-020-201400-
NORTHWEST INDIANA

CITY           SKY/WX    TMP DP  RH WIND       PRES   REMARKS
GARY /AIRPORT/ PTCLDY    34  27  75 S9        29.91R WCI  26
KNOX *+        FAIR      32  27  80 SW9       29.93R WCI  24
MONTICELLO +   FAIR      31  24  77 SW12      29.95R WCI  21

$$

LMZ046-743>745-201400-
SOUTHERN LAKE MICHIGAN

STATION/POSITION TIME  TEMP    WIND        PRES    WAVE
                       AIR SEA DIR/SP/G            HT
                 (UTC) (F)     (DEG/KT/KT) (MB)    (FT)
BURNS HARBOR     1240   35     200/ 16/ 20 1012.9R
MICHIGAN CITY    1230   35     190/ 13/ 17   N/A

$$

INZ004-005-014>016-021>024-201400-
NORTH CENTRAL INDIANA

CITY           SKY/WX    TMP DP  RH WIND       PRES   REMARKS
ELKHART        CLEAR     32  27  80 SW8       29.91  WCI  25
GOSHEN         FAIR      30  24  78 SW16      29.91R WCI  19
PERU/GRISSOM   FAIR      31  27  85 SW15      29.96R WCI  20
SOUTH BEND     FAIR      30  25  81 SW12      29.91R WCI  20

$$

INZ006>009-017-018-025>027-201400-
NORTHEAST INDIANA

CITY           SKY/WX    TMP DP  RH WIND       PRES   REMARKS
FORT WAYNE     MOCLDY    31  24  75 SW14      29.95R WCI  21
KENDALLVILLE + FAIR      31  25  78 SW13      29.91R WCI  22

$$

INZ028-029-035-036-043>045-051>053-201400-
WEST CENTRAL INDIANA

CITY           SKY/WX    TMP DP  RH WIND       PRES   REMARKS
GREENCASTLE +  FAIR      32  21  64 S8        30.02S WCI  25
LAFAYETTE      FAIR      31  25  78 SW7       29.98R WCI  24
TERRE HAUTE    FAIR      31  22  69 S9        30.04R WCI  23

$$

INZ030>032-037>040-046>048-054>057-064-065-201400-
CENTRAL INDIANA

CITY           SKY/WX    TMP DP  RH WIND       PRES   REMARKS
COLUMBUS       PTCLDY    30  16  55 S7        30.06R WCI  23
INDIANAPOLIS   MOCLDY    33  23  66 SW13      30.02R WCI  24
-EAGLE CREEK   FAIR      33  22  63 SW7       30.01R WCI  27
MT COMFORT *+  FAIR      30  25  80 SW8       30.02R WCI  23
SHELBYVILLE    FAIR      31  19  61 S10       30.03R WCI  22

$$

INZ033-034-041-042-049-050-058-059-201400-
EAST CENTRAL INDIANA

CITY           SKY/WX    TMP DP  RH WIND       PRES   REMARKS
MUNCIE         FAIR      34  22  61 SW14G22   29.98R WCI  25
RICHMOND +     FAIR      30  23  74 SW13      30.02R WCI  20

$$

INZ060-061-067>069-081>083-085>088-201400-
SOUTHWEST INDIANA

CITY           SKY/WX    TMP DP  RH WIND       PRES   REMARKS
EVANSVILLE     FAIR      32  19  58 SW7       30.11R WCI  26
HUNTINGBURG +  FAIR      33  19  56 S7        30.11S WCI  27

$$

INZ062-063-066-070>080-084-089>092-201400-
SOUTH CENTRAL AND SOUTHEAST INDIANA

CITY           SKY/WX    TMP DP  RH WIND       PRES   REMARKS
BLOOMINGTON    FAIR      35  22  58 SW15      30.05R WCI  25
FRENCH LICK *+ FAIR      36  12  38 SW5       30.09R WCI  32
SEYMOUR +      FAIR      36  21  55 SW9       30.08R WCI  29

$$





USA.gov is the U.S. government's official web portal to all federal, state and local government web resources and services.